User: anonymous   Login
Location: Albany
(35.0000°S, 118.0000°E)
Time: 16:01:27
(UTC-04:00)
Language:

Cosmos 1758 Rocket - Orbit

View from above orbital plane
View from above orbital plane
View from above satellite
View from above satellite

Ground track
Ground track

The orbit data is extracted from the following two-line orbital elements,

1 16792U 86046B   15187.53031265  .00000314  00000-0  35468-4 0  9994
2 16792 082.4831 151.9470 0025796 114.4721 025.8033 14.82934549569403
Epoch (UTC): 06 July 2015 12:43:39
Eccentricity: 0.0025796
inclination: 82.4831°
perigee height: 602 km
apogee height: 638 km
right ascension of ascending node: 151.9470°
argument of perigee: 114.4721°
revolutions per day: 14.82934549
mean anomaly at epoch: 25.8033°
orbit number at epoch: 56940

The dashed part of the orbit path shows where the satellite is in the earth's shadow,  

DLR